[[{"header":{"parameterUnit":"m.s-1","parameterCategory":1,"la1":30.2991,"la2":30.254,"lo1":-89.0895,"lo2":-89.0444,"dy":0.0017,"dx":0.0017,"nx":28,"ny":28,"refTime":"2024-06-04T03:00:00:Z","depth":0,"parameterNumber":2,"parameterNumberName":"U-component_of_WINDS"},"data":[0,0,0,0,0,0,0,0,0,0,0,0,0,0,0,0,0,0,0,0,0,0,0,0,0,0,0,0,0,0,0,0,0,0,0,0,0,0,0,0,0,0,0,0,0,0,0,0,0,0,0,0,0,0,0,0,0,0,-0.1749,-0.1749,0,-0.1769,-0.1769,-0.1769,-0.1786,-0.1787,-0.1787,-0.1787,-0.1807,-0.1807,-0.1808,0,0,0,0,0,0,0,0,0,0,0,0,0,-0.1727,-0.1727,-0.1749,-0.1749,-0.175,-0.1769,-0.1769,-0.1769,-0.1786,-0.1787,-0.1787,-0.1787,-0.1807,-0.1807,-0.1808,0,0,0,0,0,0,0,0,0,0,0,0,0,-0.174,-0.1727,-0.1749,-0.176,-0.1762,-0.1769,-0.1769,-0.177,-0.1786,-0.1787,-0.1787,-0.1787,-0.1807,-0.1807,-0.1808,-0.1805,0,0,-0.1809,-0.181,0,0,0,0,0,0,0,0,-0.174,-0.1741,-0.1758,-0.176,-0.1761,-0.1775,-0.1769,-0.1782,-0.1786,-0.1777,-0.1787,-0.1787,-0.1796,-0.1798,-0.1801,-0.1806,-0.1807,-0.1809,-0.181,-0.181,-0.181,0,0,0,0,0,0,0,-0.1739,-0.1741,-0.1757,-0.1759,-0.176,-0.1765,-0.1767,-0.1771,-0.1785,-0.1778,-0.1779,-0.1781,-0.1797,-0.18,-0.1801,-0.1807,-0.1809,-0.181,-0.181,-0.181,-0.1814,-0.1813,0,0,0,0,0,0,-0.1736,-0.174,-0.1756,-0.1758,-0.1751,-0.1765,-0.1767,-0.1771,-0.1785,-0.1787,-0.1781,-0.1782,-0.1799,-0.1801,-0.1802,-0.1801,-0.181,-0.181,-0.1811,-0.1814,-0.1814,-0.1813,0,0,0,0,0,0,-0.1735,-0.1737,-0.1756,-0.1749,-0.1752,-0.1765,-0.1768,-0.1771,-0.1774,-0.1787,-0.179,-0.1782,-0.1799,-0.1801,-0.1805,-0.1802,-0.1811,-0.1811,-0.1814,-0.1814,-0.1813,-0.1799,0,0,0,0,0,0,-0.1735,-0.1737,-0.1736,-0.1749,-0.1752,-0.1758,-0.1768,-0.1771,-0.1775,-0.1776,-0.1788,-0.1791,-0.18,-0.1804,-0.1805,-0.1803,-0.1812,-0.1814,-0.1814,-0.1814,-0.18,-0.1798,-0.1797,0,0,0,0,0,-0.1734,-0.1731,-0.1736,-0.1738,-0.1751,-0.1757,-0.1759,-0.177,-0.1775,-0.1774,-0.1783,-0.179,-0.1802,-0.1804,-0.1806,-0.1804,-0.1815,-0.1814,-0.1814,-0.18,-0.1798,-0.1797,0,0,0,0,0,0,-0.1717,-0.1733,-0.1738,-0.1739,-0.1747,-0.176,-0.176,-0.1767,-0.1773,-0.1775,-0.1787,-0.179,-0.1792,-0.1798,-0.18,-0.1803,-0.181,-0.1809,-0.1799,-0.1797,-0.1796,-0.1794,-0.1812,0,0,0,0,0,-0.1713,-0.1717,-0.1731,-0.173,-0.1734,-0.1746,-0.1749,-0.1757,-0.1765,-0.1768,-0.1777,-0.1785,-0.1791,-0.1794,-0.18,-0.1801,-0.1804,-0.18,-0.1799,-0.1797,-0.1797,-0.1799,-0.1798,-0.1812,-0.1812,-0.1812,0,0,-0.1706,-0.1715,-0.1716,-0.1727,-0.1734,-0.1738,-0.1749,-0.1752,-0.1756,-0.1769,-0.1773,-0.178,-0.179,-0.1792,-0.1793,-0.1797,-0.1794,-0.1797,-0.1796,-0.1796,-0.1799,-0.1797,-0.1796,-0.1811,-0.1811,-0.1811,0,0,-0.1694,-0.1701,-0.1702,-0.1709,-0.1719,-0.1728,-0.1728,-0.1741,-0.1746,-0.175,-0.1761,-0.1765,-0.1774,-0.1781,-0.1786,-0.1778,-0.1786,-0.178,-0.1772,-0.1774,-0.1773,-0.1772,-0.177,-0.177,-0.178,-0.178,-0.178,0,-0.1684,-0.169,-0.1702,-0.1705,-0.171,-0.1723,-0.1724,-0.173,-0.1742,-0.1745,-0.1749,-0.1762,-0.1769,-0.1774,-0.1772,-0.1775,-0.1777,-0.1779,-0.1772,-0.1772,-0.1771,-0.1769,-0.1769,-0.1779,-0.1779,-0.1779,-0.1779,0,-0.1677,-0.1682,-0.1681,-0.1693,-0.1698,-0.17,-0.1712,-0.1716,-0.1723,-0.1731,-0.1736,-0.1746,-0.1754,-0.1756,-0.1763,-0.1762,-0.1764,-0.177,-0.1777,-0.1769,-0.1768,-0.1767,-0.1778,-0.1778,-0.1778,-0.1778,0,0,-0.1655,-0.1674,-0.1674,-0.168,-0.1692,-0.1696,-0.17,-0.1708,-0.1712,-0.1719,-0.1723,-0.1731,-0.1737,-0.1743,-0.175,-0.1752,-0.1747,-0.1758,-0.1758,-0.1756,-0.1748,-0.1744,-0.1743,-0.1752,-0.1752,-0.1752,-0.1747,0,-0.1647,-0.1653,-0.1664,-0.1668,-0.1673,-0.1685,-0.1689,-0.1697,-0.1705,-0.1711,-0.1719,-0.1725,-0.1732,-0.1736,-0.1738,-0.1747,-0.1745,-0.1747,-0.1756,-0.1756,-0.1754,-0.1742,-0.1737,-0.1732,-0.1747,-0.1747,-0.1747,0,-0.1637,-0.1645,-0.1649,-0.1663,-0.1665,-0.1668,-0.1677,-0.1682,-0.1693,-0.1698,-0.1705,-0.1714,-0.1719,-0.1725,-0.1732,-0.1733,-0.1738,-0.1743,-0.1743,-0.1745,-0.1751,-0.1744,-0.1731,-0.173,-0.1746,-0.1746,-0.1746,0,-0.1622,-0.1634,-0.1638,-0.1642,-0.1658,-0.166,-0.1667,-0.1677,-0.1682,-0.169,-0.1694,-0.1702,-0.1707,-0.1714,-0.1725,-0.1729,-0.1732,-0.1739,-0.1737,-0.1737,-0.1738,-0.1737,-0.1726,-0.1739,-0.1739,-0.1739,-0.1739,0,-0.1612,-0.1614,-0.1631,-0.1634,-0.1637,-0.165,-0.1653,-0.1661,-0.167,-0.1675,-0.1686,-0.169,-0.1705,-0.1711,-0.172,-0.1725,-0.1727,-0.1732,-0.1735,-0.1732,-0.1731,-0.1735,-0.1736,-0.1739,-0.1739,-0.1739,-0.1739,0,-0.1595,-0.1607,-0.1613,-0.1627,-0.1631,-0.1633,-0.1646,-0.1649,-0.1658,-0.1664,-0.1666,-0.168,-0.1688,-0.17,-0.1711,-0.1717,-0.1722,-0.1725,-0.1718,-0.172,-0.1718,-0.1718,-0.1709,-0.1709,-0.1722,-0.1721,-0.1721,0,-0.1588,-0.159,-0.1606,-0.161,-0.1616,-0.1623,-0.1628,-0.1641,-0.1646,-0.1659,-0.1661,-0.1669,-0.1677,-0.1689,-0.1701,-0.171,-0.1714,-0.171,-0.1715,-0.1713,-0.1715,-0.1715,-0.1716,-0.1709,-0.1709,-0.1709,-0.1708,0,-0.1575,-0.1581,-0.1588,-0.1597,-0.1604,-0.1612,-0.162,-0.1623,-0.1638,-0.1643,-0.1652,-0.1658,-0.167,-0.1679,-0.169,-0.1697,-0.1705,-0.1707,-0.1707,-0.1704,-0.17,-0.1703,-0.1716,-0.1707,-0.1707,-0.1707,-0.1707,-0.1707,-0.1564,-0.1566,-0.1578,-0.1586,-0.1594,-0.1602,-0.1606,-0.1616,-0.1623,-0.1634,-0.1641,-0.165,-0.1661,-0.1676,-0.1683,-0.169,-0.1694,-0.1694,-0.1694,-0.1694,-0.1693,-0.1699,-0.1692,-0.1692,-0.1692,-0.1692,-0.1692,0,-0.1551,-0.156,-0.1567,-0.1579,-0.1585,-0.1593,-0.1603,-0.1608,-0.1615,-0.1625,-0.1633,-0.1643,-0.1652,-0.1664,-0.1674,-0.1678,-0.1682,-0.168,-0.168,-0.1682,-0.1689,-0.1688,-0.1676,-0.1676,-0.1676,-0.1676,-0.1676,-0.1676,-0.1546,-0.1552,-0.1559,-0.1569,-0.1577,-0.1586,-0.1591,-0.1599,-0.1607,-0.1618,-0.1625,-0.1633,-0.1644,-0.1656,-0.1664,-0.1668,-0.1671,-0.1668,-0.1673,-0.168,-0.1681,-0.1683,-0.1682,-0.1669,-0.1669,-0.1665,-0.1665,-0.1665]},{"header":{"parameterUnit":"m.s-1","parameterCategory":1,"la1":30.2991,"la2":30.254,"lo1":-89.0895,"lo2":-89.0444,"dy":0.0017,"dx":0.0017,"nx":28,"ny":28,"refTime":"2024-06-04T03:00:00:Z","depth":0,"parameterNumber":3,"parameterNumberName":"V-component_of_WINDS"},"data":[0,0,0,0,0,0,0,0,0,0,0,0,0,0,0,0,0,0,0,0,0,0,0,0,0,0,0,0,0,0,0,0,0,0,0,0,0,0,0,0,0,0,0,0,0,0,0,0,0,0,0,0,0,0,0,0,0,0,5.0722,5.0722,0,5.0776,5.0776,5.0777,5.0706,5.0703,5.0701,5.0698,5.0749,5.0753,5.0757,0,0,0,0,0,0,0,0,0,0,0,0,0,5.0552,5.0556,5.0722,5.0723,5.0723,5.0776,5.0776,5.0777,5.0706,5.0703,5.07,5.0697,5.0748,5.0753,5.0757,0,0,0,0,0,0,0,0,0,0,0,0,0,5.0618,5.0557,5.0722,5.0694,5.0692,5.0775,5.0776,5.0777,5.0707,5.0703,5.0699,5.0696,5.0747,5.0752,5.0758,5.0869,0,0,5.0775,5.0777,0,0,0,0,0,0,0,0,5.0614,5.0624,5.0698,5.0696,5.0694,5.073,5.0735,5.0808,5.0708,5.0701,5.0698,5.0694,5.0746,5.0751,5.077,5.0872,5.0874,5.0775,5.0779,5.0781,5.0783,0,0,0,0,0,0,0,5.061,5.0622,5.0743,5.0699,5.0697,5.0677,5.0683,5.0749,5.0744,5.0701,5.0696,5.0704,5.0744,5.0764,5.077,5.0875,5.0775,5.078,5.0784,5.0786,5.1068,5.1072,0,0,0,0,0,0,5.0609,5.0618,5.0741,5.0745,5.0644,5.0684,5.0689,5.0722,5.0743,5.0743,5.0707,5.07,5.0757,5.0764,5.0772,5.0902,5.0781,5.0786,5.079,5.1064,5.1069,5.1073,0,0,0,0,0,0,5.0606,5.0621,5.0739,5.068,5.0694,5.0691,5.0728,5.0726,5.0746,5.0748,5.0746,5.0729,5.0754,5.0764,5.0845,5.0903,5.0789,5.0794,5.1059,5.1065,5.1071,5.1164,0,0,0,0,0,0,5.0601,5.062,5.0664,5.0682,5.0697,5.0813,5.0732,5.0729,5.0756,5.0748,5.0768,5.0767,5.0752,5.0837,5.0851,5.0908,5.0798,5.1054,5.1062,5.1069,5.1156,5.1173,5.1187,0,0,0,0,0,5.0596,5.0688,5.0667,5.0682,5.0752,5.0817,5.0825,5.0807,5.0761,5.0804,5.0805,5.0767,5.0895,5.0846,5.0861,5.0921,5.105,5.1059,5.1068,5.1149,5.117,5.1187,0,0,0,0,0,0,5.0676,5.069,5.0666,5.0767,5.0792,5.0805,5.0858,5.0829,5.0866,5.0857,5.0831,5.0836,5.0922,5.093,5.0876,5.1029,5.0964,5.0977,5.1021,5.104,5.1056,5.1051,5.0803,0,0,0,0,0,5.0706,5.0759,5.0767,5.0855,5.0869,5.0862,5.0889,5.0873,5.0896,5.0906,5.0913,5.0936,5.0981,5.1011,5.1053,5.1157,5.1159,5.1205,5.1221,5.1234,5.1245,5.1298,5.1318,5.1103,5.1103,5.1103,0,0,5.0767,5.0781,5.0816,5.0872,5.0889,5.0942,5.0871,5.0931,5.097,5.0914,5.0991,5.0997,5.1021,5.1114,5.1155,5.1123,5.1305,5.1246,5.1256,5.126,5.131,5.133,5.1348,5.111,5.1109,5.1108,0,0,5.0906,5.0924,5.0998,5.1016,5.1043,5.1037,5.1055,5.1072,5.1074,5.1151,5.111,5.1155,5.1234,5.1252,5.1272,5.1416,5.1382,5.143,5.1512,5.1564,5.1581,5.1596,5.1645,5.1664,5.1441,5.1442,5.1442,0,5.0979,5.106,5.1039,5.1102,5.1127,5.108,5.1154,5.1172,5.121,5.1228,5.1191,5.1288,5.1301,5.1396,5.1431,5.1449,5.1467,5.1428,5.1581,5.1595,5.1609,5.1656,5.1675,5.1447,5.1447,5.1446,5.1445,0,5.1147,5.1203,5.126,5.1299,5.133,5.1398,5.1386,5.142,5.14,5.1397,5.1475,5.1489,5.1532,5.1553,5.1534,5.1645,5.1624,5.1585,5.1519,5.1635,5.1679,5.1697,5.1455,5.1453,5.1452,5.145,0,0,5.1339,5.1365,5.1386,5.1402,5.1427,5.1469,5.1534,5.1577,5.1605,5.1633,5.1685,5.1753,5.1716,5.1738,5.172,5.1767,5.1878,5.1721,5.1721,5.1748,5.1998,5.2027,5.2048,5.1855,5.1859,5.1862,5.1996,0,5.1477,5.159,5.1573,5.1682,5.1732,5.1687,5.1743,5.1764,5.1763,5.1804,5.1803,5.185,5.1799,5.1812,5.1856,5.1855,5.1927,5.1845,5.1902,5.1904,5.1896,5.2071,5.2102,5.2228,5.2013,5.2016,5.2018,0,5.1653,5.1688,5.1802,5.1817,5.1838,5.1889,5.1925,5.1966,5.1987,5.1983,5.2008,5.1981,5.2044,5.1978,5.2063,5.2008,5.2029,5.2033,5.2037,5.204,5.1967,5.2078,5.2268,5.2287,5.2045,5.2043,5.2041,0,5.178,5.1855,5.1932,5.1947,5.1968,5.2004,5.2014,5.2032,5.2058,5.209,5.2106,5.2144,5.2165,5.2194,5.2178,5.2132,5.2265,5.2198,5.2261,5.2262,5.229,5.2289,5.2485,5.2307,5.2307,5.2307,5.2306,0,5.1935,5.2006,5.1989,5.2037,5.2114,5.2092,5.2169,5.2173,5.2189,5.2235,5.2199,5.2242,5.2219,5.226,5.2248,5.2319,5.2329,5.2326,5.2321,5.2328,5.2329,5.2342,5.2332,5.2312,5.2311,5.231,5.2309,0,5.2089,5.2081,5.2162,5.2174,5.2179,5.2235,5.2245,5.2288,5.2284,5.2343,5.2355,5.2349,5.2396,5.2383,5.2433,5.2425,5.2514,5.2499,5.2507,5.2503,5.2566,5.256,5.2777,5.2803,5.261,5.2611,5.2613,0,5.2188,5.2242,5.226,5.2288,5.2301,5.2348,5.2374,5.2354,5.2383,5.241,5.245,5.2494,5.2527,5.2604,5.2602,5.264,5.2625,5.2698,5.263,5.2635,5.2624,5.2621,5.2625,5.2712,5.2714,5.2716,5.2717,0,5.2364,5.2357,5.2397,5.2436,5.2468,5.2497,5.2523,5.2548,5.2529,5.2563,5.261,5.2637,5.2688,5.2731,5.2765,5.2773,5.2742,5.2739,5.2755,5.2762,5.2764,5.2762,5.2542,5.2734,5.2732,5.2731,5.273,5.2729,5.2493,5.2537,5.2557,5.2602,5.2619,5.2643,5.2684,5.2685,5.2725,5.2766,5.2751,5.2805,5.2822,5.2865,5.2878,5.2919,5.2891,5.2915,5.2921,5.2926,5.2934,5.2759,5.2925,5.2925,5.2924,5.2924,5.2923,0,5.2665,5.2675,5.2717,5.2754,5.2789,5.2757,5.2783,5.2814,5.2862,5.2882,5.2916,5.2969,5.3011,5.3012,5.305,5.3082,5.3069,5.3093,5.309,5.3092,5.2958,5.2939,5.3103,5.3103,5.3103,5.3103,5.3103,5.3103,5.2759,5.2833,5.2828,5.2908,5.2917,5.2971,5.2988,5.3009,5.3024,5.3086,5.312,5.3122,5.3133,5.3172,5.3207,5.3206,5.3221,5.3251,5.3245,5.3119,5.3101,5.3084,5.3066,5.3255,5.3255,5.3375,5.3376,5.3377]}]]